Simultaneous Nadir Overpasses (SNOs) Predictions

Prediction of SNOs between AQUA and NPP Satellite Orbit:

Table of predicted SNOs for the next 14.0 days since TLE Epoch: 10/5/2024
Index Date (AQUA) Time (AQUA) Lat,Lon (AQUA) SZA (AQUA ) Date (NPP) Time (NPP) Lat,Lon (NPP) SZA (NPP ) Distance(km) Time Diff (sec)
1 10/06/2024 14:26:49 -81.29, 70.16 87.57 10/06/2024 14:26:28 -81.29, 70.10 87.55 1.05 21
2 10/06/2024 15:16:09 81.29,-122.03 92.43 10/06/2024 15:17:11 81.30,-121.98 92.38 0.88 62
3 10/09/2024 01:39:28 -81.28, -98.02 86.67 10/09/2024 01:38:46 -81.29, -97.99 86.64 0.87 42
4 10/09/2024 02:28:48 81.29, 69.72 93.34 10/09/2024 02:29:30 81.29, 69.53 93.35 3.29 42
5 10/11/2024 12:52:01 -81.30, 94.20 85.81 10/11/2024 12:51:03 -81.29, 94.08 85.76 2.28 58
6 10/11/2024 13:41:21 81.30, -98.12 94.20 10/11/2024 13:41:46 81.30, -98.02 94.18 1.66 25
7 10/14/2024 00:04:30 -81.30, -73.94 84.92 10/14/2024 00:03:20 -81.29, -74.10 84.86 2.72 70
8 10/14/2024 00:53:50 81.29, 93.67 95.10 10/14/2024 00:54:03 81.30, 93.80 95.08 2.16 13
9 10/16/2024 12:06:12 81.30, -74.13 95.95 10/16/2024 12:06:18 81.30, -74.23 95.96 1.80 6



Historial Predications of SNOs between AQUA and NPP
